GW6677 Weather Reports


time (UTC)temp
C
wind
direction
speed
KPH
gust
KPH
rain 1hr
cm
rain 24hr
cm
rain mn
cm
humidity
%
barometer
mb
20260505140605 8 188 4.8 4.8 0.00 0.00 0.00 41 1006.8
20260505125018 7 276 1.6 1.6 0.00 0.00 0.00 47 1006.8
20260505124515 7 272 3.2 3.2 0.00 0.00 0.00 48 1006.8
20260505124011 7 234 3.2 3.2 0.00 0.00 0.00 48 1006.8
20260505123508 6 251 3.2 3.2 0.00 0.00 0.00 49 1006.8
20260505123004 6 302 3.2 3.2 0.00 0.00 0.00 51 1006.8
20260505122501 6 287 0.0 0.0 0.00 0.00 0.00 52 1006.8
20260505121958 6 258 3.2 3.2 0.00 0.00 0.00 52 1006.4
20260505121455 5 256 3.2 3.2 0.00 0.00 0.00 53 1006.4
20260505120951 5 195 3.2 3.2 0.00 0.00 0.00 56 1006.1
20260505120447 4 172 0.0 0.0 0.00 0.00 0.00 58 1006.1
20260505115946 3 284 1.6 1.6 0.00 0.00 0.00 59 1005.8
20260505115443 3 284 0.0 0.0 0.00 0.00 0.00 62 1005.8
20260505114941 2 283 3.2 3.2 0.00 0.00 0.00 63 1005.4
20260505114437 1 312 0.0 0.0 0.00 0.00 0.00 73 1005.1
20260505113934 0 312 0.0 0.0 0.00 0.00 0.00 73 1005.1
20260505113430 0 312 0.0 0.0 0.00 0.00 0.00 74 1005.1
20260505112926 0 312 0.0 0.0 0.00 0.00 0.00 75 1004.7
20260505112424 0 312 0.0 0.0 0.00 0.00 0.00 75 1005.1
20260505111920 0 312 0.0 0.0 0.00 0.00 0.00 74 1005.1
20260505111415 1 312 0.0 0.0 0.00 0.00 0.00 72 1005.1
20260505110911 1 312 0.0 0.0 0.00 0.00 0.00 71 1005.1
20260505110408 1 312 0.0 0.0 0.00 0.00 0.00 72 1005.1
20260505101838 0 312 0.0 0.0 0.00 0.00 0.00 78 1004.7
20260505101334 0 312 0.0 0.0 0.00 0.00 0.00 78 1004.7
20260505100830 0 312 0.0 0.0 0.00 0.00 0.00 77 1005.1
20260505100327 0 312 0.0 0.0 0.00 0.00 0.00 76 1004.7
20260505095822 1 312 0.0 0.0 0.00 0.00 0.00 75 1004.7
20260505095320 1 312 0.0 0.0 0.00 0.00 0.00 74 1004.3
20260505094816 1 312 0.0 0.0 0.00 0.00 0.00 73 1004.3
20260505094313 1 312 0.0 0.0 0.00 0.00 0.00 72 1004.7
20260505093808 1 312 0.0 0.0 0.00 0.00 0.00 71 1004.7
20260505093306 2 312 0.0 0.0 0.00 0.00 0.00 70 1004.7
20260505092802 2 312 0.0 0.0 0.00 0.00 0.00 69 1004.3
20260505092304 2 312 0.0 0.0 0.00 0.00 0.00 68 1004.3
20260505091758 2 312 0.0 0.0 0.00 0.00 0.00 67 1004.3
20260505091256 2 312 0.0 0.0 0.00 0.00 0.00 65 1004.3
20260505090754 3 312 0.0 0.0 0.00 0.00 0.00 64 1004.3
20260505090252 3 312 0.0 0.0 0.00 0.00 0.00 64 1004.3
20260505085749 3 312 0.0 0.0 0.00 0.00 0.00 63 1004.3
20260505085242 3 312 0.0 0.0 0.00 0.00 0.00 61 1004.3
20260505084738 3 312 0.0 0.0 0.00 0.00 0.00 61 1004.3
20260505084238 4 312 0.0 0.0 0.00 0.00 0.00 60 1004.0
20260505083734 4 312 0.0 0.0 0.00 0.00 0.00 60 1003.6
20260505083231 4 312 0.0 0.0 0.00 0.00 0.00 59 1003.6
20260505082727 4 312 0.0 0.0 0.00 0.00 0.00 58 1003.3
20260505082224 5 312 0.0 0.0 0.00 0.00 0.00 58 1003.6
20260505081720 5 312 0.0 0.0 0.00 0.00 0.00 57 1003.6
20260505081218 5 312 0.0 0.0 0.00 0.00 0.00 54 1003.3
20260505080715 5 312 0.0 0.0 0.00 0.00 0.00 54 1003.3
20260505080210 6 312 0.0 0.0 0.00 0.00 0.00 52 1003.3
20260505075706 6 312 0.0 0.0 0.00 0.00 0.00 52 1003.3
20260505075203 6 312 0.0 0.0 0.00 0.00 0.00 50 1002.9
20260505074701 6 312 0.0 0.0 0.00 0.00 0.00 48 1002.9
20260505074157 7 312 0.0 0.0 0.00 0.00 0.00 49 1002.9
20260505073655 7 312 1.6 1.6 0.00 0.00 0.00 48 1002.6
20260505073153 7 312 0.0 0.0 0.00 0.00 0.00 49 1002.6
20260505072648 7 312 3.2 3.2 0.00 0.00 0.00 46 1002.6
20260505072145 7 312 3.2 3.2 0.00 0.00 0.00 46 1002.9
20260505071641 7 318 3.2 3.2 0.00 0.00 0.00 46 1002.9
20260505071139 7 306 3.2 3.2 0.00 0.00 0.00 45 1002.9
20260505070636 7 306 4.8 4.8 0.00 0.00 0.00 45 1003.3
20260505070132 8 312 3.2 3.2 0.00 0.00 0.00 45 1002.9
20260505065628 7 308 4.8 4.8 0.00 0.00 0.00 45 1002.9
20260505065125 8 312 4.8 4.8 0.00 0.00 0.00 45 1002.9
20260505064621 8 323 3.2 3.2 0.00 0.00 0.00 46 1002.9
20260505064120 8 312 3.2 3.2 0.00 0.00 0.00 45 1002.9
20260505063617 8 312 4.8 6.4 0.00 0.00 0.00 44 1002.9
20260505063113 8 306 6.4 6.4 0.00 0.00 0.00 44 1002.9
20260505062609 8 294 8.0 8.0 0.00 0.00 0.00 43 1002.9
20260505062107 8 303 4.8 6.4 0.00 0.00 0.00 43 1002.9
20260505061604 8 228 3.2 3.2 0.00 0.00 0.00 42 1002.9
20260505061102 8 312 6.4 6.4 0.00 0.00 0.00 42 1002.9
20260505060559 8 312 3.2 3.2 0.00 0.00 0.00 42 1002.9
20260505060056 8 308 3.2 3.2 0.00 0.00 0.00 42 1002.9
20260505055551 9 302 3.2 3.2 0.00 0.00 0.00 42 1002.9
20260505055048 9 252 8.0 9.7 0.00 0.00 0.00 41 1002.6
20260505054545 9 289 3.2 3.2 0.00 0.00 0.00 42 1002.9
20260505054043 9 316 14.5 14.5 0.00 0.00 0.00 41 1002.6
20260505053540 9 296 3.2 3.2 0.00 0.00 0.00 41 1002.6
20260505053037 10 293 3.2 3.2 0.00 0.00 0.00 41 1002.6
20260505052534 10 318 9.7 9.7 0.00 0.00 0.00 41 1002.6
20260505052031 10 312 4.8 6.4 0.00 0.00 0.00 41 1002.3
20260505051528 10 312 3.2 3.2 0.00 0.00 0.00 41 1002.3
20260505051026 10 312 3.2 3.2 0.00 0.00 0.00 40 1002.3
20260505050524 10 300 3.2 3.2 0.00 0.00 0.00 39 1002.3
20260505041451 11 297 6.4 6.4 0.00 0.00 0.00 39 1001.3
20260505040949 11 318 3.2 3.2 0.00 0.00 0.00 38 1001.3
20260505040446 11 251 4.8 6.4 0.00 0.00 0.00 40 1000.8
20260505035943 11 278 3.2 3.2 0.00 0.00 0.00 40 1000.8
20260505035439 11 312 6.4 8.0 0.00 0.00 0.00 39 1000.8
20260505034936 11 278 6.4 6.4 0.00 0.00 0.00 39 1001.3
20260505034433 12 280 6.4 6.4 0.00 0.00 0.00 40 1000.8
20260505033930 12 258 11.3 12.9 0.00 0.00 0.00 41 1000.5
20260505033426 12 318 4.8 4.8 0.00 0.00 0.00 41 1000.5
20260505032925 12 279 4.8 4.8 0.00 0.00 0.00 40 1000.1
20260505032422 12 312 4.8 6.4 0.00 0.00 0.00 41 1000.5
20260505031918 12 216 4.8 6.4 0.00 0.00 0.00 40 1000.1
20260505031415 12 282 11.3 11.3 0.00 0.00 0.00 40 999.8
20260505030912 12 247 9.7 11.3 0.00 0.00 0.00 41 999.8
20260505030408 12 258 4.8 4.8 0.00 0.00 0.00 41 999.8
20260505025903 13 334 4.8 4.8 0.00 0.00 0.00 40 999.5
20260505025401 13 327 8.0 9.7 0.00 0.00 0.00 39 999.8
20260505024900 13 279 4.8 4.8 0.00 0.00 0.00 39 999.5
20260505024357 13 105 3.2 3.2 0.00 0.00 0.00 39 999.1
20260505023854 13 301 6.4 6.4 0.00 0.00 0.00 37 998.8
20260505023351 13 295 3.2 3.2 0.00 0.00 0.00 37 998.8
20260505022848 13 234 4.8 6.4 0.00 0.00 0.00 37 998.8
20260505022345 13 308 3.2 3.2 0.00 0.00 0.00 36 998.8
20260505021842 13 280 3.2 3.2 0.00 0.00 0.00 35 998.1
20260505021339 13 288 4.8 4.8 0.00 0.00 0.00 35 998.4
20260505020834 13 257 4.8 6.4 0.00 0.00 0.00 36 998.1
20260505020330 13 233 6.4 8.0 0.00 0.00 0.00 35 998.1
20260505015827 13 281 3.2 3.2 0.00 0.00 0.00 34 997.8
20260505015324 13 278 4.8 4.8 0.00 0.00 0.00 33 997.8
20260505014822 14 339 3.2 3.2 0.00 0.00 0.00 33 997.8
20260505014318 14 257 3.2 3.2 0.00 0.00 0.00 32 997.8
20260505013815 14 302 3.2 3.2 0.00 0.00 0.00 32 997.8
20260505013312 15 312 4.8 4.8 0.00 0.00 0.00 30 997.8
20260505012811 15 192 3.2 3.2 0.00 0.00 0.00 29 997.8
20260505012308 15 273 4.8 4.8 0.00 0.00 0.00 29 997.8
20260505011804 15 306 8.0 8.0 0.00 0.00 0.00 27 997.8
20260505011301 16 288 4.8 4.8 0.00 0.00 0.00 26 997.3
20260505010756 16 234 4.8 4.8 0.00 0.00 0.00 26 997.0
20260505010253 16 293 3.2 3.2 0.00 0.00 0.00 26 997.3
20260505005749 16 313 3.2 3.2 0.00 0.00 0.00 26 997.3
20260505005246 16 312 3.2 3.2 0.00 0.00 0.00 27 997.0
20260505004744 17 284 3.2 3.2 0.00 0.00 0.00 28 997.0
20260505004239 16 287 8.0 8.0 0.00 0.00 0.00 28 997.0
20260505003737 17 263 9.7 11.3 0.00 0.00 0.00 28 997.0
20260505003235 17 336 3.2 3.2 0.00 0.00 0.00 30 997.0
20260505002731 17 242 4.8 4.8 0.00 0.00 0.00 29 996.7
20260505002228 17 295 3.2 3.2 0.00 0.00 0.00 28 996.7
20260505001726 17 305 4.8 4.8 0.00 0.00 0.00 28 996.7
20260505001223 18 286 8.0 9.7 0.00 0.00 0.00 29 996.3
20260505000720 18 280 6.4 6.4 0.00 0.00 0.00 31 996.3
20260505000219 18 253 6.4 6.4 0.00 0.00 0.00 31 996.3
20260504235714 18 333 9.7 9.7 0.00 0.00 0.00 31 996.3
20260504235210 18 274 4.8 4.8 0.00 0.00 0.00 30 996.3
20260504234708 18 311 3.2 3.2 0.00 0.00 0.00 30 996.0
20260504234205 18 281 4.8 4.8 0.00 0.00 0.00 30 996.0
20260504233701 18 281 3.2 3.2 0.00 0.00 0.00 30 996.0
20260504233157 18 278 3.2 3.2 0.00 0.00 0.00 29 996.0
20260504232654 18 286 9.7 9.7 0.00 0.00 0.00 29 996.0
20260504232151 18 289 9.7 9.7 0.00 0.00 0.00 28 996.3
20260504231648 18 264 3.2 3.2 0.00 0.00 0.00 28 996.0
20260504231144 19 300 8.0 9.7 0.00 0.00 0.00 28 996.0
20260504230640 19 277 3.2 3.2 0.00 0.00 0.00 28 996.0
20260504230139 20 282 6.4 6.4 0.00 0.00 0.00 27 996.0
20260504225637 20 288 6.4 8.0 0.00 0.00 0.00 27 996.0
20260504225133 20 306 4.8 6.4 0.00 0.00 0.00 29 996.0
20260504224630 20 277 8.0 8.0 0.00 0.00 0.00 28 996.0
20260504224127 21 279 9.7 11.3 0.00 0.00 0.00 28 995.6
20260504223624 21 286 3.2 3.2 0.00 0.00 0.00 29 995.6
20260504223120 21 281 4.8 6.4 0.00 0.00 0.00 29 995.3
20260504222617 21 280 4.8 4.8 0.00 0.00 0.00 28 995.3
20260504222114 21 324 6.4 8.0 0.00 0.00 0.00 27 995.3
20260504221611 21 286 11.3 11.3 0.00 0.00 0.00 26 995.3
20260504221108 21 192 4.8 6.4 0.00 0.00 0.00 26 995.3
20260504220604 22 277 3.2 3.2 0.00 0.00 0.00 25 995.0
20260504215558 23 300 4.8 4.8 0.00 0.00 0.00 27 995.0
20260504215056 23 314 6.4 6.4 0.00 0.00 0.00 27 995.0
20260504214551 23 313 6.4 8.0 0.00 0.00 0.00 27 994.6
20260504214048 23 312 4.8 4.8 0.00 0.00 0.00 29 994.6
20260504213544 22 278 3.2 3.2 0.00 0.00 0.00 29 994.6
20260504213042 22 305 6.4 8.0 0.00 0.00 0.00 30 994.6
20260504212537 23 286 11.3 11.3 0.00 0.00 0.00 30 994.6
20260504212035 23 196 11.3 11.3 0.00 0.00 0.00 30 994.6
20260504211531 23 341 12.9 14.5 0.00 0.00 0.00 30 994.3
20260504211029 23 293 4.8 4.8 0.00 0.00 0.00 30 994.3
20260504210526 23 292 6.4 6.4 0.00 0.00 0.00 30 994.3
20260504210022 23 278 6.4 8.0 0.00 0.00 0.00 29 994.3
20260504205520 23 288 6.4 6.4 0.00 0.00 0.00 31 994.3
20260504205018 24 300 8.0 9.7 0.00 0.00 0.00 30 994.3
20260504204516 24 279 4.8 4.8 0.00 0.00 0.00 32 994.3
20260504204015 24 198 8.0 9.7 0.00 0.00 0.00 32 994.3
20260504203512 24 262 3.2 3.2 0.00 0.00 0.00 31 994.3
20260504203009 25 132 6.4 6.4 0.00 0.00 0.00 30 993.9
20260504202505 25 318 6.4 8.0 0.00 0.00 0.00 31 994.3
20260504202002 25 325 8.0 9.7 0.00 0.00 0.00 31 993.9
20260504201459 25 294 6.4 6.4 0.00 0.00 0.00 30 993.9
20260504200956 25 192 9.7 11.3 0.00 0.00 0.00 29 994.3
20260504200453 25 286 3.2 3.2 0.00 0.00 0.00 31 994.3
20260504195949 25 176 3.2 3.2 0.00 0.00 0.00 29 993.9
20260504195445 25 198 11.3 11.3 0.00 0.00 0.00 31 993.9
20260504194942 25 157 4.8 4.8 0.00 0.00 0.00 31 994.3
20260504194438 25 280 6.4 8.0 0.00 0.00 0.00 29 993.9
20260504193934 25 150 8.0 8.0 0.00 0.00 0.00 29 993.9
20260504193432 25 276 14.5 17.7 0.00 0.00 0.00 28 993.9
20260504192930 25 264 8.0 8.0 0.00 0.00 0.00 28 993.9
20260504192427 25 66 14.5 14.5 0.00 0.00 0.00 28 993.9
20260504191926 25 55 6.4 6.4 0.00 0.00 0.00 28 993.9
20260504191424 24 269 9.7 11.3 0.00 0.00 0.00 28 993.9
20260504190919 25 246 14.5 17.7 0.00 0.00 0.00 28 993.9
20260504190415 25 102 3.2 3.2 0.00 0.00 0.00 28 993.9
20260504185912 25 174 6.4 6.4 0.00 0.00 0.00 28 994.3
20260504185409 25 265 9.7 9.7 0.00 0.00 0.00 28 993.9
20260504184904 24 105 3.2 3.2 0.00 0.00 0.00 29 994.3
20260504184401 25 220 6.4 8.0 0.00 0.00 0.00 28 994.3
20260504183856 25 162 17.7 20.9 0.00 0.00 0.00 27 993.9
20260504183354 25 184 11.3 11.3 0.00 0.00 0.00 27 994.3
20260504182851 25 44 9.7 9.7 0.00 0.00 0.00 28 994.3
20260504182349 25 120 4.8 6.4 0.00 0.00 0.00 27 994.3
20260504181845 25 220 8.0 8.0 0.00 0.00 0.00 28 994.3
20260504181343 24 279 12.9 16.1 0.00 0.00 0.00 28 994.3
20260504180842 25 278 14.5 17.7 0.00 0.00 0.00 27 993.9
20260504180340 25 240 8.0 8.0 0.00 0.00 0.00 28 994.3
20260504175838 25 141 17.7 22.5 0.00 0.00 0.00 28 994.3
20260504175334 25 330 12.9 12.9 0.00 0.00 0.00 28 994.3
20260504174832 25 300 6.4 6.4 0.00 0.00 0.00 28 993.9
20260504174330 25 270 6.4 6.4 0.00 0.00 0.00 27 993.9
20260504173826 25 260 8.0 8.0 0.00 0.00 0.00 27 994.3
20260504173323 25 130 9.7 11.3 0.00 0.00 0.00 26 994.3
20260504172820 25 264 4.8 4.8 0.00 0.00 0.00 27 994.6
20260504172317 25 276 12.9 14.5 0.00 0.00 0.00 26 994.3
20260504171812 25 306 3.2 3.2 0.00 0.00 0.00 27 994.6
20260504171310 25 204 16.1 19.3 0.00 0.00 0.00 27 994.6
20260504170807 25 306 8.0 9.7 0.00 0.00 0.00 26 994.6
20260504170304 24 93 8.0 8.0 0.00 0.00 0.00 27 995.0
20260504160222 22 124 8.0 8.0 0.00 0.00 0.00 29 995.3
20260504150647 21 122 8.0 8.0 0.00 0.00 0.00 32 996.0
20260504150144 21 156 9.7 11.3 0.00 0.00 0.00 31 996.0